Regional Weather Roundup
Issued by NWS Midland/Odessa, TX

Skip options and go directly to product.
Home | Oldest Version | Next Version | Current Version | All | Text Only | Save Text | Print | Product List | Glossary On

Skip product version selection by date and time.   
306
ASUS44 KMAF 241510
RWRMAF
MIDLAND AREA WEATHER ROUNDUP
NATIONAL WEATHER SERVICE MIDLAND TX
1000 AM CDT FRI APR 24 2015

...IN SOUTHWEST TEXAS AND SOUTHEAST NEW MEXICO...

CITY           SKY/WX    TMP DP  RH WIND       PRES   REMARKS
ALPINE         CLOUDY    63  53  70 SW3       29.99S
ANDREWS        FAIR      66  53  61 S16G28    29.87R
ARTESIA        CLOUDY    61  41  48 SW14G20   29.89F
BIG SPRING     CLOUDY    65  58  79 CALM      29.89R
CARLSBAD       CLOUDY    64  43  46 NW13      29.89S
DRYDEN           N/A     72  57  59 SE8       29.86S
FORT STOCKTON  CLOUDY    68  55  63 S14       29.88S
GUAD PASS      CLOUDY    52  41  66 SW24G37   29.97R
HOBBS          MOSUNNY   63  54  72 S21       29.89R
MARFA          CLOUDY    57  52  82 SW6       30.00R
MIDLAND AIRPK  CLOUDY    62  58  86 SW5       29.87S
MIDLAND INTL   PTSUNNY   63  56  78 SW7       29.86F
ODESSA         LGT RAIN  63  54  72 S14       29.87F
PECOS          CLOUDY    69  54  57 S8        29.84F
PRESIDIO       FAIR      65  54  68 CALM      29.91S
SEMINOLE       PTSUNNY   65  55  69 SW17      29.88R
SNYDER         HVY RAIN  62  59  90 S7        29.86F
WINK           CLOUDY    66  54  65 S10       29.85R
$$
...OTHER STATIONS IN TEXAS...

CITY           SKY/WX    TMP DP  RH WIND       PRES   REMARKS
ABILENE        CLOUDY    63  61  93 E3        29.86F
AMARILLO       CLOUDY    60  46  59 SW16      29.77F
AUSTIN         PTSUNNY   73  71  93 SE13      29.85R
BROWNSVILLE    MOSUNNY   83  75  77 S22G28    29.83R
CORPUS CHRISTI PTSUNNY   79  74  84 CALM      29.87R
DALLAS FTW     HVY RAIN  65  64  97 E9        29.83F FOG
DEL RIO        CLOUDY    71  62  73 CALM      29.83F
EL PASO        MOSUNNY   61  40  45 W23G30    29.95R
HOUSTON INT    CLOUDY    74  73  97 SE6       29.91S FOG
LUBBOCK        PTSUNNY   70  50  49 SW22G37   29.80F
SAN ANGELO     CLOUDY    67  56  67 CALM      29.86F
SAN ANTONIO    CLOUDY    73  70  90 E6        29.87R
WACO           CLOUDY    72  67  84 S8        29.82F
WICHITA FALLS  NOT AVBL
$$
...OTHER LOCATIONS IN NEW MEXICO...

CITY           SKY/WX    TMP DP  RH WIND       PRES   REMARKS
ALAMAGORDO     MOSUNNY   57  41  54 S10       29.95R
ALBUQUERQUE    CLOUDY    48  39  71 E3        29.93F
CANNON AFB     LGT RAIN  59  41  51 W26G33    29.85R
CLOVIS         CLOUDY    59  39  47 SW20      29.83R
HOLLOMAN AFB   MOSUNNY   57  44  61 S10       29.93R
ROSWELL        CLOUDY    61  40  45 W9        29.87S
RUIDOSO        MOSUNNY   46  39  76 NE6       29.97S
SANTA FE       CLOUDY    44  38  79 SW10      29.90F WCI  39
TRUTH OR CONSE PTSUNNY   51  36  56 NW21G32   29.94R
TUCUMCARI      PTSUNNY   65  37  35 SW29G36   29.77R
$$

USA.gov is the U.S. government's official web portal to all federal, state and local government web resources and services.